Location: C�mpuri de-Sus
(45.9500°N, 22.5500°E)
Time: 01:14:26
(UTC+00:00)

Cosmos 839 Rocket - Pass Details

Date: 29 May 2022
Orbit: 968 x 2085 km, 65.9° (Epoch: 06 July)

Event Time Altitude Azimuth Distance (km) Brightness Sun altitude
Rises 23:49:44 0° 317° (NW) 3,733 7.4 -19.8°
Reaches altitude 10° 23:52:28 10° 307° (NW) 2,847 6.6 -19.6°
Maximum altitude 23:58:06 31° 248° (WSW) 1,906 5.1 -19.2°
Enters shadow 23:59:55 27° 223° (SW) 2,095 5.2 -19.1°
